Location: Most
(50.5133°N, 13.6207°E)
Time: 09:42:20
(UTC+02:00)

ISS - Pass Details

Date: 20 July 2018
Orbit: 402 x 408 km, 51.6° (Epoch: 17 July)

Event Time Altitude Azimuth Distance (km) Brightness Sun altitude
Rises 22:09:31 0° 213° (SSW) 2,310 -0.1 -8.4°
Reaches altitude 10° 22:11:51 10° 198° (SSW) 1,456 -1.3 -8.6°
Maximum altitude 22:14:29 23° 144° (SE) 920 -2.6 -8.9°
Drops below altitude 10° 22:17:08 10° 90° (E) 1,465 -1.4 -9.2°
Sets 22:19:29 0° 76° (ENE) 2,330 -0.2 -9.4°
